Location: *
(51.4660°N, 0.3360°W)
Time: 20:19:34
(UTC+00:00)

Cosmos 407 Rocket - Pass Details

Date: 19 September 2019
Orbit: 744 x 786 km, 74.0° (Epoch: 20 October)

Event Time Altitude Azimuth Distance (km) Brightness Sun altitude
Rises 19:12:11 0° 335° (NNW) 3,209 7.4 -10.8°
Reaches altitude 10° 19:14:34 10° 338° (NNW) 2,277 6.5 -11.1°
Maximum altitude 19:19:43 75° 63° (ENE) 775 3.4 -11.9°
Drops below altitude 10° 19:24:50 10° 150° (SSE) 2,256 5.5 -12.7°
Enters shadow 19:25:01 - 150° (SSE) 2,331 5.6 -12.7°
